Year,Month,Day,Hour,Minute,Value (Times are PST for temperature in C)
2015,06,29,00,00,18.10
2015,06,29,00,01,18.20
2015,06,29,00,02,18.20
2015,06,29,00,03,18.20
2015,06,29,00,04,18.30
2015,06,29,00,05,18.30
2015,06,29,00,06,18.30
2015,06,29,00,07,18.40
2015,06,29,00,08,18.40
2015,06,29,00,09,18.40
2015,06,29,00,10,18.50
2015,06,29,00,11,18.50
2015,06,29,00,12,18.50
2015,06,29,00,13,18.60
2015,06,29,00,14,18.60
2015,06,29,00,15,18.60
2015,06,29,00,16,18.60
2015,06,29,00,17,18.70
2015,06,29,00,18,18.70
2015,06,29,00,19,18.70
2015,06,29,00,20,18.70
2015,06,29,00,21,18.70
2015,06,29,00,22,18.80
2015,06,29,00,23,18.80
2015,06,29,00,24,18.80
2015,06,29,00,25,18.80
2015,06,29,00,26,18.80
2015,06,29,00,27,18.80
2015,06,29,00,28,18.80
2015,06,29,00,29,18.80
2015,06,29,00,30,18.80
2015,06,29,00,31,18.80
2015,06,29,00,32,18.90
2015,06,29,00,33,18.90
2015,06,29,00,34,18.90
2015,06,29,00,35,18.90
2015,06,29,00,36,18.90
2015,06,29,00,37,18.90
2015,06,29,00,38,18.90
2015,06,29,00,39,19.00
2015,06,29,00,40,19.00
2015,06,29,00,41,19.00
2015,06,29,00,42,19.00
2015,06,29,00,43,19.00
2015,06,29,00,44,19.00
2015,06,29,00,45,19.00
2015,06,29,00,46,19.00
2015,06,29,00,47,19.00
2015,06,29,00,48,19.00
2015,06,29,00,49,19.00
2015,06,29,00,50,19.00
2015,06,29,00,51,19.00
2015,06,29,00,52,19.00
2015,06,29,00,53,19.00
2015,06,29,00,54,19.00
2015,06,29,00,55,19.00
2015,06,29,00,56,19.00
2015,06,29,00,57,19.00
2015,06,29,00,58,19.00
2015,06,29,00,59,19.00
2015,06,29,01,00,19.00
2015,06,29,01,01,19.00
2015,06,29,01,02,19.00
2015,06,29,01,03,19.00
2015,06,29,01,04,19.00
2015,06,29,01,05,19.00
2015,06,29,01,06,18.90
2015,06,29,01,07,18.90
2015,06,29,01,08,18.90
2015,06,29,01,09,18.90
2015,06,29,01,10,18.90
2015,06,29,01,11,18.90
2015,06,29,01,12,18.90
2015,06,29,01,13,18.90
2015,06,29,01,14,18.90
2015,06,29,01,15,18.90
2015,06,29,01,16,18.90
2015,06,29,01,17,18.90
2015,06,29,01,18,18.90
2015,06,29,01,19,18.90
2015,06,29,01,20,18.80
2015,06,29,01,21,18.80
2015,06,29,01,22,18.80
2015,06,29,01,23,18.80
2015,06,29,01,24,18.80
2015,06,29,01,25,18.80
2015,06,29,01,26,18.80
2015,06,29,01,27,18.80
2015,06,29,01,28,18.80
2015,06,29,01,29,18.80
2015,06,29,01,30,18.70
2015,06,29,01,31,18.70
2015,06,29,01,32,18.70
2015,06,29,01,33,18.70
2015,06,29,01,34,18.60
2015,06,29,01,35,18.60
2015,06,29,01,36,18.60
2015,06,29,01,37,18.50
2015,06,29,01,38,18.50
2015,06,29,01,39,18.40
2015,06,29,01,40,18.30
2015,06,29,01,41,18.30
2015,06,29,01,42,18.20
2015,06,29,01,43,18.20
2015,06,29,01,44,18.10
2015,06,29,01,45,18.10
2015,06,29,01,46,18.00
2015,06,29,01,47,18.00
2015,06,29,01,48,17.90
2015,06,29,01,49,17.90
2015,06,29,01,50,17.90
2015,06,29,01,51,17.80
2015,06,29,01,52,17.80
2015,06,29,01,53,17.80
2015,06,29,01,54,17.70
2015,06,29,01,55,17.70
2015,06,29,01,56,17.70
2015,06,29,01,57,17.70
2015,06,29,01,58,17.70
2015,06,29,01,59,17.60
2015,06,29,02,00,17.60
2015,06,29,02,01,17.60
2015,06,29,02,02,17.60
2015,06,29,02,03,17.50
2015,06,29,02,04,17.50
2015,06,29,02,05,17.50
2015,06,29,02,06,17.40
2015,06,29,02,07,17.40
2015,06,29,02,08,17.40
2015,06,29,02,09,17.40
2015,06,29,02,10,17.40
2015,06,29,02,11,17.40
2015,06,29,02,12,17.40
2015,06,29,02,13,17.40
2015,06,29,02,14,17.40
2015,06,29,02,15,17.40
2015,06,29,02,16,17.40
2015,06,29,02,17,17.40
2015,06,29,02,18,17.40
2015,06,29,02,19,17.40
2015,06,29,02,20,17.40
2015,06,29,02,21,17.40
2015,06,29,02,22,17.40
2015,06,29,02,23,17.40
2015,06,29,02,24,17.40
2015,06,29,02,25,17.40
2015,06,29,02,26,17.40
2015,06,29,02,27,17.40
2015,06,29,02,28,17.40
2015,06,29,02,29,17.40
2015,06,29,02,30,17.40
2015,06,29,02,31,17.40
2015,06,29,02,32,17.40
2015,06,29,02,33,17.40
2015,06,29,02,34,17.40
2015,06,29,02,35,17.40
2015,06,29,02,36,17.40
2015,06,29,02,37,17.40
2015,06,29,02,38,17.50
2015,06,29,02,39,17.50
2015,06,29,02,40,17.50
2015,06,29,02,41,17.50
2015,06,29,02,42,17.60
2015,06,29,02,43,17.60
2015,06,29,02,44,17.60
2015,06,29,02,45,17.60
2015,06,29,02,46,17.60
2015,06,29,02,47,17.60
2015,06,29,02,48,17.60
2015,06,29,02,49,17.60
2015,06,29,02,50,17.60
2015,06,29,02,51,17.60
2015,06,29,02,52,17.60
2015,06,29,02,53,17.70
2015,06,29,02,54,17.70
2015,06,29,02,55,17.70
2015,06,29,02,56,17.70
2015,06,29,02,57,17.70
2015,06,29,02,58,17.70
2015,06,29,02,59,17.70
2015,06,29,03,00,17.70
2015,06,29,03,01,17.70
2015,06,29,03,02,17.70
2015,06,29,03,03,17.70
2015,06,29,03,04,17.70
2015,06,29,03,05,17.70
2015,06,29,03,06,17.70
2015,06,29,03,07,17.70
2015,06,29,03,08,17.70
2015,06,29,03,09,17.80
2015,06,29,03,10,17.70
2015,06,29,03,11,17.70
2015,06,29,03,12,17.70
2015,06,29,03,13,17.70
2015,06,29,03,14,17.70
2015,06,29,03,15,17.70
2015,06,29,03,16,17.70
2015,06,29,03,17,17.70
2015,06,29,03,18,17.70
2015,06,29,03,19,17.70
2015,06,29,03,20,17.70
2015,06,29,03,21,17.70
2015,06,29,03,22,17.70
2015,06,29,03,23,17.70
2015,06,29,03,24,17.70
2015,06,29,03,25,17.70
2015,06,29,03,26,17.70
2015,06,29,03,27,17.80
2015,06,29,03,28,17.80
2015,06,29,03,29,17.80
2015,06,29,03,30,17.80
2015,06,29,03,31,17.80
2015,06,29,03,32,17.80
2015,06,29,03,33,17.80
2015,06,29,03,34,17.90
2015,06,29,03,35,17.90
2015,06,29,03,36,17.90
2015,06,29,03,37,18.00
2015,06,29,03,38,18.00
2015,06,29,03,39,18.00
2015,06,29,03,40,18.00
2015,06,29,03,41,18.00
2015,06,29,03,42,18.00
2015,06,29,03,43,18.00
2015,06,29,03,44,18.00
2015,06,29,03,45,18.10
2015,06,29,03,46,18.10
2015,06,29,03,47,18.10
2015,06,29,03,48,18.10
2015,06,29,03,49,18.20
2015,06,29,03,50,18.20
2015,06,29,03,51,18.20
2015,06,29,03,52,18.20
2015,06,29,03,53,18.20
2015,06,29,03,54,18.20
2015,06,29,03,55,18.20
2015,06,29,03,56,18.20
2015,06,29,03,57,18.20
2015,06,29,03,58,18.20
2015,06,29,03,59,18.10
2015,06,29,04,00,18.10
2015,06,29,04,01,18.10
2015,06,29,04,02,18.10
2015,06,29,04,03,18.10
2015,06,29,04,04,18.00
2015,06,29,04,05,17.90
2015,06,29,04,06,17.90
2015,06,29,04,07,17.80
2015,06,29,04,08,17.80
2015,06,29,04,09,17.70
2015,06,29,04,10,17.70
2015,06,29,04,11,17.60
2015,06,29,04,12,17.60
2015,06,29,04,13,17.50
2015,06,29,04,14,17.50
2015,06,29,04,15,17.50
2015,06,29,04,16,17.40
2015,06,29,04,17,17.40
2015,06,29,04,18,17.30
2015,06,29,04,19,17.30
2015,06,29,04,20,17.30
2015,06,29,04,21,17.30
2015,06,29,04,22,17.20
2015,06,29,04,23,17.20
2015,06,29,04,24,17.20
2015,06,29,04,25,17.20
2015,06,29,04,26,17.20
2015,06,29,04,27,17.20
2015,06,29,04,28,17.10
2015,06,29,04,29,17.10
2015,06,29,04,30,17.10
2015,06,29,04,31,17.10
2015,06,29,04,32,17.10
2015,06,29,04,33,17.10
2015,06,29,04,34,17.10
2015,06,29,04,35,17.10
2015,06,29,04,36,17.10
2015,06,29,04,37,17.10
2015,06,29,04,38,17.10
2015,06,29,04,39,17.10
2015,06,29,04,40,17.10
2015,06,29,04,41,17.00
2015,06,29,04,42,17.00
2015,06,29,04,43,17.00
2015,06,29,04,44,17.00
2015,06,29,04,45,17.00
2015,06,29,04,46,17.00
2015,06,29,04,47,17.00
2015,06,29,04,48,17.00
2015,06,29,04,49,17.00
2015,06,29,04,50,17.10
2015,06,29,04,51,17.10
2015,06,29,04,52,17.10
2015,06,29,04,53,17.10
2015,06,29,04,54,17.10
2015,06,29,04,55,17.10
2015,06,29,04,56,17.10
2015,06,29,04,57,17.20
2015,06,29,04,58,17.20
2015,06,29,04,59,17.20
2015,06,29,05,00,17.20
2015,06,29,05,01,17.20
2015,06,29,05,02,17.20
2015,06,29,05,03,17.20
2015,06,29,05,04,17.20
2015,06,29,05,05,17.20
2015,06,29,05,06,17.20
2015,06,29,05,07,17.20
2015,06,29,05,08,17.20
2015,06,29,05,09,17.20
2015,06,29,05,10,17.20
2015,06,29,05,11,17.20
2015,06,29,05,12,17.20
2015,06,29,05,13,17.20
2015,06,29,05,14,17.20
2015,06,29,05,15,17.20
2015,06,29,05,16,17.20
2015,06,29,05,17,17.20
2015,06,29,05,18,17.20
2015,06,29,05,19,17.20
2015,06,29,05,20,17.20
2015,06,29,05,21,17.20
2015,06,29,05,22,17.20
2015,06,29,05,23,17.20
2015,06,29,05,24,17.20
2015,06,29,05,25,17.20
2015,06,29,05,26,17.20
2015,06,29,05,27,17.20
2015,06,29,05,28,17.20
2015,06,29,05,29,17.20
2015,06,29,05,30,17.20
2015,06,29,05,31,17.30
2015,06,29,05,32,17.30
2015,06,29,05,33,17.30
2015,06,29,05,34,17.30
2015,06,29,05,35,17.30
2015,06,29,05,36,17.30
2015,06,29,05,37,17.30
2015,06,29,05,38,17.30
2015,06,29,05,39,17.30
2015,06,29,05,40,17.30
2015,06,29,05,41,17.30
2015,06,29,05,42,17.30
2015,06,29,05,43,17.30
2015,06,29,05,44,17.30
2015,06,29,05,45,17.30
2015,06,29,05,46,17.30
2015,06,29,05,47,17.30
2015,06,29,05,48,17.30
2015,06,29,05,49,17.30
2015,06,29,05,50,17.30
2015,06,29,05,51,17.30
2015,06,29,05,52,17.40
2015,06,29,05,53,17.40
2015,06,29,05,54,17.40
2015,06,29,05,55,17.40
2015,06,29,05,56,17.40
2015,06,29,05,57,17.50
2015,06,29,05,58,17.50
2015,06,29,05,59,17.50
2015,06,29,06,00,17.50
2015,06,29,06,01,17.50
2015,06,29,06,02,17.50
2015,06,29,06,03,17.50
2015,06,29,06,04,17.50
2015,06,29,06,05,17.40
2015,06,29,06,06,17.40
2015,06,29,06,07,17.40
2015,06,29,06,08,17.40
2015,06,29,06,09,17.40
2015,06,29,06,10,17.40
2015,06,29,06,11,17.30
2015,06,29,06,12,17.30
2015,06,29,06,13,17.30
2015,06,29,06,14,17.20
2015,06,29,06,15,17.00
2015,06,29,06,16,17.00
2015,06,29,06,17,16.90
2015,06,29,06,18,16.80
2015,06,29,06,19,16.80
2015,06,29,06,20,16.70
2015,06,29,06,21,16.60
2015,06,29,06,22,16.60
2015,06,29,06,23,16.50
2015,06,29,06,24,16.50
2015,06,29,06,25,16.40
2015,06,29,06,26,16.40
2015,06,29,06,27,16.30
2015,06,29,06,28,16.30
2015,06,29,06,29,16.30
2015,06,29,06,30,16.30
2015,06,29,06,31,16.20
2015,06,29,06,32,16.20
2015,06,29,06,33,16.20
2015,06,29,06,34,16.20
2015,06,29,06,35,16.10
2015,06,29,06,36,16.10
2015,06,29,06,37,16.00
2015,06,29,06,38,16.00
2015,06,29,06,39,15.90
2015,06,29,06,40,15.90
2015,06,29,06,41,15.90
2015,06,29,06,42,15.90
2015,06,29,06,43,15.90
2015,06,29,06,44,15.80
2015,06,29,06,45,15.80
2015,06,29,06,46,15.80
2015,06,29,06,47,15.80
2015,06,29,06,48,15.80
2015,06,29,06,49,15.90
2015,06,29,06,50,15.90
2015,06,29,06,51,15.90
2015,06,29,06,52,15.90
2015,06,29,06,53,15.90
2015,06,29,06,54,15.90
2015,06,29,06,55,15.90
2015,06,29,06,56,15.90
2015,06,29,06,57,16.00
2015,06,29,06,58,16.00
2015,06,29,06,59,16.00
2015,06,29,07,00,16.10
2015,06,29,07,01,16.10
2015,06,29,07,02,16.10
2015,06,29,07,03,16.10
2015,06,29,07,04,16.20
2015,06,29,07,05,16.20
2015,06,29,07,06,16.20
2015,06,29,07,07,16.20
2015,06,29,07,08,16.30
2015,06,29,07,09,16.30
2015,06,29,07,10,16.40
2015,06,29,07,11,16.40
2015,06,29,07,12,16.40
2015,06,29,07,13,16.50
2015,06,29,07,14,16.50
2015,06,29,07,15,16.60
2015,06,29,07,16,16.60
2015,06,29,07,17,16.70
2015,06,29,07,18,16.70
2015,06,29,07,19,16.80
2015,06,29,07,20,16.80
2015,06,29,07,21,16.90
2015,06,29,07,22,17.00
2015,06,29,07,23,17.00
2015,06,29,07,24,17.10
2015,06,29,07,25,17.10
2015,06,29,07,26,17.20
2015,06,29,07,27,17.20
2015,06,29,07,28,17.30
2015,06,29,07,29,17.40
2015,06,29,07,30,17.50
2015,06,29,07,31,17.50
2015,06,29,07,32,17.60
2015,06,29,07,33,17.60
2015,06,29,07,34,17.60
2015,06,29,07,35,17.60
2015,06,29,07,36,17.60
2015,06,29,07,37,17.60
2015,06,29,07,38,17.60
2015,06,29,07,39,17.50
2015,06,29,07,40,17.50
2015,06,29,07,41,17.50
2015,06,29,07,42,17.50
2015,06,29,07,43,17.50
2015,06,29,07,44,17.50
2015,06,29,07,45,17.50
2015,06,29,07,46,17.50
2015,06,29,07,47,17.50
2015,06,29,07,48,17.50
2015,06,29,07,49,17.50
2015,06,29,07,50,17.50
2015,06,29,07,51,17.50
2015,06,29,07,52,17.50
2015,06,29,07,53,17.50
2015,06,29,07,54,17.60
2015,06,29,07,55,17.60
2015,06,29,07,56,17.60
2015,06,29,07,57,17.70
2015,06,29,07,58,17.70
2015,06,29,07,59,17.80
2015,06,29,08,00,17.80
2015,06,29,08,01,17.90
2015,06,29,08,02,18.00
2015,06,29,08,03,18.00
2015,06,29,08,04,18.10
2015,06,29,08,05,18.20
2015,06,29,08,06,18.30
2015,06,29,08,07,18.30
2015,06,29,08,08,18.40
2015,06,29,08,09,18.50
2015,06,29,08,10,18.60
2015,06,29,08,11,18.70
2015,06,29,08,12,18.80
2015,06,29,08,13,18.90
2015,06,29,08,14,19.00
2015,06,29,08,15,19.10
2015,06,29,08,16,19.10
2015,06,29,08,17,19.10
2015,06,29,08,18,19.10
2015,06,29,08,19,19.10
2015,06,29,08,20,19.00
2015,06,29,08,21,18.90
2015,06,29,08,22,18.80
2015,06,29,08,23,18.80
2015,06,29,08,24,18.70
2015,06,29,08,25,18.60
2015,06,29,08,26,18.50
2015,06,29,08,27,18.50
2015,06,29,08,28,18.40
2015,06,29,08,29,18.30
2015,06,29,08,30,18.20
2015,06,29,08,31,18.10
2015,06,29,08,32,18.10
2015,06,29,08,33,18.00
2015,06,29,08,34,17.90
2015,06,29,08,35,17.90
2015,06,29,08,36,17.80
2015,06,29,08,37,17.80
2015,06,29,08,38,17.70
2015,06,29,08,39,17.70
2015,06,29,08,40,17.60
2015,06,29,08,41,17.60
2015,06,29,08,42,17.50
2015,06,29,08,43,17.50
2015,06,29,08,44,17.40
2015,06,29,08,45,17.30
2015,06,29,08,46,17.30
2015,06,29,08,47,17.30
2015,06,29,08,48,17.30
2015,06,29,08,49,17.20
2015,06,29,08,50,17.20
2015,06,29,08,51,17.20
2015,06,29,08,52,17.10
2015,06,29,08,53,17.10
2015,06,29,08,54,17.10
2015,06,29,08,55,17.10
2015,06,29,08,56,17.10
2015,06,29,08,57,17.20
2015,06,29,08,58,17.20
2015,06,29,08,59,17.20
2015,06,29,09,00,17.30
2015,06,29,09,01,17.30
2015,06,29,09,02,17.40
2015,06,29,09,03,17.50
2015,06,29,09,04,17.60
2015,06,29,09,05,17.70
2015,06,29,09,06,17.70
2015,06,29,09,07,17.70
2015,06,29,09,08,17.60
2015,06,29,09,09,17.60
2015,06,29,09,10,17.60
2015,06,29,09,11,17.50
2015,06,29,09,12,17.50
2015,06,29,09,13,17.50
2015,06,29,09,14,17.50
2015,06,29,09,15,17.50
2015,06,29,09,16,17.50
2015,06,29,09,17,17.50
2015,06,29,09,18,17.60
2015,06,29,09,19,17.60
2015,06,29,09,20,17.70
2015,06,29,09,21,17.70
2015,06,29,09,22,17.80
2015,06,29,09,23,17.80
2015,06,29,09,24,17.90
2015,06,29,09,25,17.90
2015,06,29,09,26,17.90
2015,06,29,09,27,17.90
2015,06,29,09,28,17.90
2015,06,29,09,29,17.90
2015,06,29,09,30,17.90
2015,06,29,09,31,17.90
2015,06,29,09,32,17.90
2015,06,29,09,33,17.90
2015,06,29,09,34,17.90
2015,06,29,09,35,18.00
2015,06,29,09,36,18.10
2015,06,29,09,37,18.10
2015,06,29,09,38,18.20
2015,06,29,09,39,18.30
2015,06,29,09,40,18.40
2015,06,29,09,41,18.50
2015,06,29,09,42,18.60
2015,06,29,09,43,18.70
2015,06,29,09,44,18.80
2015,06,29,09,45,18.80
2015,06,29,09,46,18.90
2015,06,29,09,47,19.00
2015,06,29,09,48,19.20
2015,06,29,09,49,19.30
2015,06,29,09,50,19.40
2015,06,29,09,51,19.50
2015,06,29,09,52,19.60
2015,06,29,09,53,19.70
2015,06,29,09,54,19.70
2015,06,29,09,55,19.80
2015,06,29,09,56,19.90
2015,06,29,09,57,19.90
2015,06,29,09,58,20.00
2015,06,29,09,59,20.00
2015,06,29,10,00,20.10
2015,06,29,10,01,20.00
2015,06,29,10,02,19.90
2015,06,29,10,03,19.80
2015,06,29,10,04,19.70
2015,06,29,10,05,19.70
2015,06,29,10,06,19.60
2015,06,29,10,07,19.60
2015,06,29,10,08,19.60
2015,06,29,10,09,19.60
2015,06,29,10,10,19.60
2015,06,29,10,11,19.60
2015,06,29,10,12,19.60
2015,06,29,10,13,19.60
2015,06,29,10,14,19.60
2015,06,29,10,15,19.60
2015,06,29,10,16,19.70
2015,06,29,10,17,19.70
2015,06,29,10,18,19.70
2015,06,29,10,19,19.70
2015,06,29,10,20,19.80
2015,06,29,10,21,19.80
2015,06,29,10,22,19.80
2015,06,29,10,23,19.80
2015,06,29,10,24,19.90
2015,06,29,10,25,19.90
2015,06,29,10,26,19.90
2015,06,29,10,27,20.00
2015,06,29,10,28,20.00
2015,06,29,10,29,20.00
2015,06,29,10,30,20.10
2015,06,29,10,31,20.10
2015,06,29,10,32,20.10
2015,06,29,10,33,20.20
2015,06,29,10,34,20.30
2015,06,29,10,35,20.30
2015,06,29,10,36,20.40
2015,06,29,10,37,20.50
2015,06,29,10,38,20.50
2015,06,29,10,39,20.60
2015,06,29,10,40,20.70
2015,06,29,10,41,20.70
2015,06,29,10,42,20.70
2015,06,29,10,43,20.70
2015,06,29,10,44,20.80
2015,06,29,10,45,20.90
2015,06,29,10,46,21.00
2015,06,29,10,47,21.10
2015,06,29,10,48,21.10
2015,06,29,10,49,21.20
2015,06,29,10,50,21.20
2015,06,29,10,51,21.10
2015,06,29,10,52,21.10
2015,06,29,10,53,21.00
2015,06,29,10,54,21.00
2015,06,29,10,55,20.90
2015,06,29,10,56,20.90
2015,06,29,10,57,20.90
2015,06,29,10,58,20.80
2015,06,29,10,59,20.80
2015,06,29,11,00,20.70
2015,06,29,11,01,20.70
2015,06,29,11,02,20.70
2015,06,29,11,03,20.70
2015,06,29,11,04,20.60
2015,06,29,11,05,20.60
2015,06,29,11,06,20.50
2015,06,29,11,07,20.50
2015,06,29,11,08,20.40
2015,06,29,11,09,20.40
2015,06,29,11,10,20.30
2015,06,29,11,11,20.20
2015,06,29,11,12,20.20
2015,06,29,11,13,20.10
2015,06,29,11,14,20.10
2015,06,29,11,15,20.10
2015,06,29,11,16,20.10
2015,06,29,11,17,20.00
2015,06,29,11,18,20.00
2015,06,29,11,19,20.00
2015,06,29,11,20,19.90
2015,06,29,11,21,19.90
2015,06,29,11,22,19.90
2015,06,29,11,23,19.80
2015,06,29,11,24,19.80
2015,06,29,11,25,19.80
2015,06,29,11,26,19.80
2015,06,29,11,27,19.70
2015,06,29,11,28,19.70
2015,06,29,11,29,19.70
2015,06,29,11,30,19.60
2015,06,29,11,31,19.60
2015,06,29,11,32,19.50
2015,06,29,11,33,19.50
2015,06,29,11,34,19.50
2015,06,29,11,35,19.50
2015,06,29,11,36,19.40
2015,06,29,11,37,19.40
2015,06,29,11,38,19.40
2015,06,29,11,39,19.40
2015,06,29,11,40,19.40
2015,06,29,11,41,19.40
2015,06,29,11,42,19.40
2015,06,29,11,43,19.40
2015,06,29,11,44,19.40
2015,06,29,11,45,19.50
2015,06,29,11,46,19.60
2015,06,29,11,47,19.60
2015,06,29,11,48,19.80
2015,06,29,11,49,19.90
2015,06,29,11,50,20.00
2015,06,29,11,51,20.10
2015,06,29,11,52,20.20
2015,06,29,11,53,20.30
2015,06,29,11,54,20.40
2015,06,29,11,55,20.50
2015,06,29,11,56,20.50
2015,06,29,11,57,20.60
2015,06,29,11,58,20.70
2015,06,29,11,59,20.70
2015,06,29,12,00,20.70
2015,06,29,12,01,20.70
2015,06,29,12,02,20.60
2015,06,29,12,03,20.60
2015,06,29,12,04,20.60
2015,06,29,12,05,20.60
2015,06,29,12,06,20.60
2015,06,29,12,07,20.50
2015,06,29,12,08,20.50
2015,06,29,12,09,20.40
2015,06,29,12,10,20.40
2015,06,29,12,11,20.30
2015,06,29,12,12,20.30
2015,06,29,12,13,20.30
2015,06,29,12,14,20.30
2015,06,29,12,15,20.30
2015,06,29,12,16,20.30
2015,06,29,12,17,20.30
2015,06,29,12,18,20.30
2015,06,29,12,19,20.20
2015,06,29,12,20,20.20
2015,06,29,12,21,20.20
2015,06,29,12,22,20.20
2015,06,29,12,23,20.20
2015,06,29,12,24,20.10
2015,06,29,12,25,20.10
2015,06,29,12,26,20.10
2015,06,29,12,27,20.00
2015,06,29,12,28,20.00
2015,06,29,12,29,20.00
2015,06,29,12,30,20.00
2015,06,29,12,31,19.90
2015,06,29,12,32,19.90
2015,06,29,12,33,19.90
2015,06,29,12,34,19.90
2015,06,29,12,35,19.80
2015,06,29,12,36,19.70
2015,06,29,12,37,19.50
2015,06,29,12,38,19.30
2015,06,29,12,39,19.10
2015,06,29,12,40,19.00
2015,06,29,12,41,18.80
2015,06,29,12,42,18.80
2015,06,29,12,43,18.70
2015,06,29,12,44,18.60
2015,06,29,12,45,18.60
2015,06,29,12,46,18.50
2015,06,29,12,47,18.50
2015,06,29,12,48,18.50
2015,06,29,12,49,18.50
2015,06,29,12,50,18.60
2015,06,29,12,51,18.60
2015,06,29,12,52,18.60
2015,06,29,12,53,18.60
2015,06,29,12,54,18.60
2015,06,29,12,55,18.50
2015,06,29,12,56,18.50
2015,06,29,12,57,18.40
2015,06,29,12,58,18.30
2015,06,29,12,59,18.30
2015,06,29,13,00,18.10
2015,06,29,13,01,18.00
2015,06,29,13,02,17.90
2015,06,29,13,03,17.80
2015,06,29,13,04,17.80
2015,06,29,13,05,17.70
2015,06,29,13,06,17.60
2015,06,29,13,07,17.50
2015,06,29,13,08,17.40
2015,06,29,13,09,17.30
2015,06,29,13,10,17.20
2015,06,29,13,11,17.20
2015,06,29,13,12,17.20
2015,06,29,13,13,17.20
2015,06,29,13,14,17.20
2015,06,29,13,15,17.20
2015,06,29,13,16,17.20
2015,06,29,13,17,17.30
2015,06,29,13,18,17.40
2015,06,29,13,19,17.40
2015,06,29,13,20,17.40
2015,06,29,13,21,17.50
2015,06,29,13,22,17.50
2015,06,29,13,23,17.50
2015,06,29,13,24,17.60
2015,06,29,13,25,17.60
2015,06,29,13,26,17.60
2015,06,29,13,27,17.70
2015,06,29,13,28,17.80
2015,06,29,13,29,17.80
2015,06,29,13,30,17.90
2015,06,29,13,31,17.90
2015,06,29,13,32,17.90
2015,06,29,13,33,18.00
2015,06,29,13,34,18.00
2015,06,29,13,35,18.10
2015,06,29,13,36,18.20
2015,06,29,13,37,18.20
2015,06,29,13,38,18.20
2015,06,29,13,39,18.20
2015,06,29,13,40,18.20
2015,06,29,13,41,18.20
2015,06,29,13,42,18.20
2015,06,29,13,43,18.20
2015,06,29,13,44,18.20
2015,06,29,13,45,18.30
2015,06,29,13,46,18.30
2015,06,29,13,47,18.30
2015,06,29,13,48,18.30
2015,06,29,13,49,18.30
2015,06,29,13,50,18.30
2015,06,29,13,51,18.40
2015,06,29,13,52,18.40
2015,06,29,13,53,18.40
2015,06,29,13,54,18.50
2015,06,29,13,55,18.60
2015,06,29,13,56,18.70
2015,06,29,13,57,18.70
2015,06,29,13,58,18.80
2015,06,29,13,59,18.90
2015,06,29,14,00,19.00
2015,06,29,14,01,19.10
2015,06,29,14,02,19.20
2015,06,29,14,03,19.30
2015,06,29,14,04,19.40
2015,06,29,14,05,19.60
2015,06,29,14,06,19.80
2015,06,29,14,07,20.00
2015,06,29,14,08,20.30
2015,06,29,14,09,20.50
2015,06,29,14,10,20.80
2015,06,29,14,11,21.10
2015,06,29,14,12,21.30
2015,06,29,14,13,21.60
2015,06,29,14,14,21.80
2015,06,29,14,15,22.10
2015,06,29,14,16,22.30
2015,06,29,14,17,22.60
2015,06,29,14,18,22.90
2015,06,29,14,19,23.10
2015,06,29,14,20,23.30
2015,06,29,14,21,23.50
2015,06,29,14,22,23.90
2015,06,29,14,23,24.30
2015,06,29,14,24,24.70
2015,06,29,14,25,25.00
2015,06,29,14,26,25.40
2015,06,29,14,27,25.70
2015,06,29,14,28,26.00
2015,06,29,14,29,26.30
2015,06,29,14,30,26.50
2015,06,29,14,31,26.70
2015,06,29,14,32,26.90
2015,06,29,14,33,27.10
2015,06,29,14,34,27.20
2015,06,29,14,35,27.40
2015,06,29,14,36,27.50
2015,06,29,14,37,27.60
2015,06,29,14,38,27.70
2015,06,29,14,39,27.80
2015,06,29,14,40,27.80
2015,06,29,14,41,27.90
2015,06,29,14,42,27.80
2015,06,29,14,43,27.80
2015,06,29,14,44,27.80
2015,06,29,14,45,27.70
2015,06,29,14,46,27.70
2015,06,29,14,47,27.70
2015,06,29,14,48,27.70
2015,06,29,14,49,27.70
2015,06,29,14,50,27.60
2015,06,29,14,51,27.60
2015,06,29,14,52,27.50
2015,06,29,14,53,27.50
2015,06,29,14,54,27.40
2015,06,29,14,55,27.20
2015,06,29,14,56,27.10
2015,06,29,14,57,26.90
2015,06,29,14,58,26.80
2015,06,29,14,59,26.60
2015,06,29,15,00,26.50
2015,06,29,15,01,26.40
2015,06,29,15,02,26.40
2015,06,29,15,03,26.40
2015,06,29,15,04,26.40
2015,06,29,15,05,26.40
2015,06,29,15,06,26.40
2015,06,29,15,07,26.30
2015,06,29,15,08,26.20
2015,06,29,15,09,26.20
2015,06,29,15,10,26.20
2015,06,29,15,11,26.10
2015,06,29,15,12,26.10
2015,06,29,15,13,26.20
2015,06,29,15,14,26.20
2015,06,29,15,15,26.20
2015,06,29,15,16,26.30
2015,06,29,15,17,26.30
2015,06,29,15,18,26.30
2015,06,29,15,19,26.30
2015,06,29,15,20,26.40
2015,06,29,15,21,26.40
2015,06,29,15,22,26.40
2015,06,29,15,23,26.40
2015,06,29,15,24,26.40
2015,06,29,15,25,26.40
2015,06,29,15,26,26.40
2015,06,29,15,27,26.40
2015,06,29,15,28,26.30
2015,06,29,15,29,26.30
2015,06,29,15,30,26.20
2015,06,29,15,31,26.20
2015,06,29,15,32,26.20
2015,06,29,15,33,26.10
2015,06,29,15,34,26.10
2015,06,29,15,35,26.10
2015,06,29,15,36,26.20
2015,06,29,15,37,26.20
2015,06,29,15,38,26.30
2015,06,29,15,39,26.40
2015,06,29,15,40,26.40
2015,06,29,15,41,26.40
2015,06,29,15,42,26.30
2015,06,29,15,43,26.30
2015,06,29,15,44,26.20
2015,06,29,15,45,26.00
2015,06,29,15,46,25.80
2015,06,29,15,47,25.70
2015,06,29,15,48,25.50
2015,06,29,15,49,25.40
2015,06,29,15,50,25.20
2015,06,29,15,51,25.10
2015,06,29,15,52,24.90
2015,06,29,15,53,24.80
2015,06,29,15,54,24.70
2015,06,29,15,55,24.60
2015,06,29,15,56,24.60
2015,06,29,15,57,24.60
2015,06,29,15,58,24.60
2015,06,29,15,59,24.60
2015,06,29,16,00,24.60
2015,06,29,16,01,24.60
2015,06,29,16,02,24.60
2015,06,29,16,03,24.60
2015,06,29,16,04,24.70
2015,06,29,16,05,24.70
2015,06,29,16,06,24.80
2015,06,29,16,07,24.90
2015,06,29,16,08,25.00
2015,06,29,16,09,25.00
2015,06,29,16,10,24.90
2015,06,29,16,11,24.80
2015,06,29,16,12,24.70
2015,06,29,16,13,24.60
2015,06,29,16,14,24.60
2015,06,29,16,15,24.50
2015,06,29,16,16,24.50
2015,06,29,16,17,24.60
2015,06,29,16,18,24.60
2015,06,29,16,19,24.60
2015,06,29,16,20,24.70
2015,06,29,16,21,24.60
2015,06,29,16,22,24.60
2015,06,29,16,23,24.70
2015,06,29,16,24,24.70
2015,06,29,16,25,24.70
2015,06,29,16,26,24.70
2015,06,29,16,27,24.70
2015,06,29,16,28,24.70
2015,06,29,16,29,24.60
2015,06,29,16,30,24.60
2015,06,29,16,31,24.50
2015,06,29,16,32,24.50
2015,06,29,16,33,24.40
2015,06,29,16,34,24.50
2015,06,29,16,35,24.40
2015,06,29,16,36,24.40
2015,06,29,16,37,24.40
2015,06,29,16,38,24.40
2015,06,29,16,39,24.40
2015,06,29,16,40,24.40
2015,06,29,16,41,24.40
2015,06,29,16,42,24.50
2015,06,29,16,43,24.60
2015,06,29,16,44,24.60
2015,06,29,16,45,24.70
2015,06,29,16,46,24.80
2015,06,29,16,47,24.90
2015,06,29,16,48,25.10
2015,06,29,16,49,25.20
2015,06,29,16,50,25.30
2015,06,29,16,51,25.40
2015,06,29,16,52,25.40
2015,06,29,16,53,25.50
2015,06,29,16,54,25.50
2015,06,29,16,55,25.50
2015,06,29,16,56,25.40
2015,06,29,16,57,25.50
2015,06,29,16,58,25.50
2015,06,29,16,59,25.50
2015,06,29,17,00,25.50
2015,06,29,17,01,25.60
2015,06,29,17,02,25.60
2015,06,29,17,03,25.70
2015,06,29,17,04,25.70
2015,06,29,17,05,25.70
2015,06,29,17,06,25.60
2015,06,29,17,07,25.60
2015,06,29,17,08,25.50
2015,06,29,17,09,25.40
2015,06,29,17,10,25.30
2015,06,29,17,11,25.20
2015,06,29,17,12,25.20
2015,06,29,17,13,25.10
2015,06,29,17,14,25.00
2015,06,29,17,15,24.80
2015,06,29,17,16,24.70
2015,06,29,17,17,24.60
2015,06,29,17,18,24.50
2015,06,29,17,19,24.30